TimeEDT,TemperatureF,Dew PointF,Humidity,Sea Level PressureIn,VisibilityMPH,Wind Direction,Wind SpeedMPH,Gust SpeedMPH,PrecipitationIn,Events,Conditions,WindDirDegrees,DateUTC
12:51 AM,66.9,64.0,90,29.81,5.0,SW,4.6,-,N/A,,Scattered Clouds,230,2013-07-23 04:51:00
1:27 AM,66.9,64.9,93,29.81,2.5,WSW,4.6,-,N/A,,Scattered Clouds,240,2013-07-23 05:27:00
1:32 AM,66.9,64.9,93,29.81,1.8,WSW,5.8,-,N/A,,Mostly Cloudy,240,2013-07-23 05:32:00
1:37 AM,66.9,64.9,93,29.81,1.0,WSW,5.8,-,N/A,,Mostly Cloudy,240,2013-07-23 05:37:00
1:48 AM,66.2,64.4,94,29.81,0.8,WSW,4.6,-,N/A,,Overcast,240,2013-07-23 05:48:00
1:51 AM,66.9,64.9,93,29.80,0.5,WSW,4.6,-,N/A,Fog,Fog,240,2013-07-23 05:51:00
2:16 AM,66.0,64.0,93,29.81,2.5,SW,4.6,-,N/A,,Scattered Clouds,230,2013-07-23 06:16:00
2:51 AM,66.0,64.0,93,29.80,2.5,SW,3.5,-,N/A,,Partly Cloudy,230,2013-07-23 06:51:00
3:45 AM,66.2,62.6,88,29.80,4.0,SSW,5.8,-,N/A,,Partly Cloudy,200,2013-07-23 07:45:00
3:51 AM,66.0,63.0,90,29.79,4.0,SSW,4.6,-,N/A,,Partly Cloudy,210,2013-07-23 07:51:00
4:51 AM,64.9,63.0,93,29.77,6.0,South,4.6,-,N/A,,Partly Cloudy,180,2013-07-23 08:51:00
5:51 AM,64.0,62.1,93,29.78,6.0,SSW,4.6,-,N/A,,Scattered Clouds,210,2013-07-23 09:51:00
6:51 AM,64.9,62.1,90,29.78,9.0,SSW,6.9,-,N/A,,Scattered Clouds,200,2013-07-23 10:51:00
7:51 AM,66.9,64.0,90,29.79,8.0,SSW,6.9,-,N/A,,Scattered Clouds,200,2013-07-23 11:51:00
8:51 AM,70.0,66.0,87,29.78,10.0,SSW,6.9,-,N/A,,Scattered Clouds,210,2013-07-23 12:51:00
9:51 AM,73.9,66.9,79,29.77,10.0,SSW,6.9,-,N/A,,Scattered Clouds,210,2013-07-23 13:51:00
10:51 AM,78.1,66.9,68,29.77,10.0,SW,10.4,-,N/A,,Mostly Cloudy,230,2013-07-23 14:51:00
11:51 AM,81.0,70.0,69,29.76,10.0,WSW,9.2,-,N/A,,Mostly Cloudy,240,2013-07-23 15:51:00
12:51 PM,82.0,70.0,67,29.75,10.0,SW,9.2,-,N/A,,Mostly Cloudy,230,2013-07-23 16:51:00
1:51 PM,82.9,69.1,63,29.72,10.0,SW,9.2,-,N/A,,Mostly Cloudy,230,2013-07-23 17:51:00
2:33 PM,79.0,71.1,77,29.72,3.0,WSW,13.8,-,0.02,Rain-Thunderstorm,Thunderstorms and Rain,240,2013-07-23 18:33:00
2:36 PM,78.1,71.1,79,29.73,1.8,West,10.4,-,0.05,Rain-Thunderstorm,Heavy Thunderstorms and Rain,260,2013-07-23 18:36:00
2:51 PM,73.9,66.9,79,29.72,1.2,Variable,4.6,18.4,0.54,Rain-Thunderstorm,Light Thunderstorms and Rain,0,2013-07-23 18:51:00
2:59 PM,73.0,66.0,79,29.74,4.0,Variable,5.8,-,0.00,Rain-Thunderstorm,Light Thunderstorms and Rain,0,2013-07-23 18:59:00
3:36 PM,77.0,68.0,74,29.72,10.0,East,3.5,-,0.03,,Mostly Cloudy,100,2013-07-23 19:36:00
3:51 PM,79.0,69.1,72,29.71,10.0,South,4.6,-,0.03,,Scattered Clouds,180,2013-07-23 19:51:00
4:51 PM,84.9,68.0,57,29.69,10.0,WNW,13.8,18.4,N/A,,Scattered Clouds,290,2013-07-23 20:51:00
5:51 PM,84.9,64.9,51,29.67,10.0,West,12.7,20.7,N/A,,Scattered Clouds,260,2013-07-23 21:51:00
6:51 PM,81.0,66.0,60,29.68,10.0,NW,20.7,31.1,N/A,,Mostly Cloudy,320,2013-07-23 22:51:00
7:51 PM,75.0,66.9,76,29.73,10.0,North,13.8,-,N/A,,Mostly Cloudy,360,2013-07-23 23:51:00
8:02 PM,75.0,66.9,76,29.75,10.0,North,19.6,24.2,N/A,,Mostly Cloudy,360,2013-07-24 00:02:00
8:51 PM,73.0,66.0,79,29.75,10.0,North,12.7,-,N/A,,Mostly Cloudy,10,2013-07-24 00:51:00
9:51 PM,72.0,64.9,78,29.77,10.0,NNE,15.0,-,0.01,,Overcast,20,2013-07-24 01:51:00
10:51 PM,71.1,62.1,73,29.80,10.0,NNE,15.0,-,N/A,,Overcast,20,2013-07-24 02:51:00
11:14 PM,71.1,60.1,68,29.82,10.0,NNE,16.1,24.2,N/A,,Overcast,20,2013-07-24 03:14:00
11:36 PM,70.0,60.1,71,29.83,10.0,North,16.1,-,N/A,,Overcast,10,2013-07-24 03:36:00
11:51 PM,70.0,60.1,71,29.82,10.0,NNE,13.8,21.9,N/A,,Overcast,30,2013-07-24 03:51:00